Weather History for Escanaba, MI

Change the Weather History Date:

Monday, December 31, 2012

  Actual Average Record
Temperature  
Mean Temperature 16 °F -  
Max Temperature 24 °F 26 °F 49 °F (1965)
Min Temperature 8 °F 12 °F -15 °F (1967)
Degree Days  
Heating Degree Days 49    
Moisture  
Dew Point 8 °F    
Average Humidity 67    
Maximum Humidity 80    
Minimum Humidity 46    
Precipitation  
Precipitation 0.00 in - - ()
Sea Level Pressure  
Sea Level Pressure 29.96 in    
Wind  
Wind Speed 9 mph (WNW)    
Max Wind Speed 21 mph    
Max Gust Speed 25 mph    
Visibility 9 miles    
Events      
Averages and records for this station are not official NWS values.
T = Trace of Precipitation, MM = Missing Value Source: NWS Daily Summary

Daily Weather History Graph

Daily Weather History Graph

Search for Another Location

Airport:

Trip Planner

Search our weather history database for the weather conditions in past years. The results will help you decide how hot, cold, wet, or windy it might be!

Date:

Astronomy

Dec. 31, 2012 Rise Set
Actual Time 8:29 AM EST 5:14 PM EST
Civil Twilight 7:55 AM EST 5:48 PM EST
Nautical Twilight 7:17 AM EST 6:26 PM EST
Astronomical Twilight 6:41 AM EST 7:02 PM EST
Moon 8:56 PM EST (12/31) 10:00 AM EST (12/31)
Length of Visible Light 9h 53m
Length of Day
8h 44m
Waning Gibbous, 90% of the Moon is Illuminated
Dec 31
Waning Gibbous
Jan 4
Last Quarter
Jan 11
New
Jan 18
First Quarter
Jan 26
Full

Hourly Weather History & Observations

Time (EST) Temp. Windchill Dew Point Humidity Pressure Visibility Wind Dir Wind Speed Gust Speed Precip Events Conditions
12:15 AM 17.6 °F 5.0 °F 10.4 °F 73% 29.90 in 8.0 mi SW 11.5 mph - N/A   Overcast
12:35 AM 17.6 °F 6.4 °F 10.4 °F 73% 29.90 in 7.0 mi WSW 9.2 mph - N/A   Overcast
12:55 AM 17.6 °F 9.3 °F 10.4 °F 73% 29.89 in 7.0 mi SW 5.8 mph - N/A   Scattered Clouds
1:15 AM 17.6 °F 8.2 °F 10.4 °F 73% 29.88 in 7.0 mi SW 6.9 mph - N/A   Partly Cloudy
1:35 AM 17.6 °F 8.2 °F 10.4 °F 73% 29.86 in 7.0 mi SW 6.9 mph - N/A   Mostly Cloudy
1:55 AM 17.6 °F 8.2 °F 10.4 °F 73% 29.85 in 7.0 mi SW 6.9 mph - N/A   Overcast
2:15 AM 19.4 °F 11.5 °F 12.2 °F 74% 29.85 in 7.0 mi West 5.8 mph - N/A   Overcast
2:55 AM 19.4 °F 12.8 °F 12.2 °F 74% 29.86 in 7.0 mi SW 4.6 mph - N/A   Overcast
3:15 AM 19.4 °F 14.3 °F 12.2 °F 74% 29.86 in 7.0 mi SW 3.5 mph - N/A   Overcast
3:35 AM 19.4 °F 12.8 °F 12.2 °F 74% 29.85 in 7.0 mi SW 4.6 mph - N/A   Overcast
3:55 AM 19.4 °F 11.5 °F 14.0 °F 80% 29.84 in 7.0 mi WSW 5.8 mph - N/A   Overcast
4:15 AM 19.4 °F 10.4 °F 14.0 °F 80% 29.84 in 7.0 mi West 6.9 mph - N/A   Overcast
4:35 AM 19.4 °F 11.5 °F 14.0 °F 80% 29.83 in 7.0 mi West 5.8 mph - N/A   Overcast
4:55 AM 21.2 °F 10.9 °F 14.0 °F 74% 29.83 in 7.0 mi West 9.2 mph - N/A   Overcast
5:15 AM 19.4 °F 9.5 °F 12.2 °F 74% 29.84 in 7.0 mi West 8.1 mph - N/A   Mostly Cloudy
5:35 AM 19.4 °F 10.4 °F 12.2 °F 74% 29.84 in 7.0 mi West 6.9 mph - N/A   Partly Cloudy
5:55 AM 19.4 °F 11.5 °F 12.2 °F 74% 29.85 in 7.0 mi West 5.8 mph - N/A   Clear
6:15 AM 19.4 °F 12.8 °F 12.2 °F 74% 29.86 in 7.0 mi West 4.6 mph - N/A   Mostly Cloudy
6:35 AM 17.6 °F 12.3 °F 12.2 °F 79% 29.86 in 6.0 mi West 3.5 mph - N/A   Overcast
6:55 AM 17.6 °F 12.3 °F 12.2 °F 79% 29.88 in 5.0 mi West 3.5 mph - N/A   Overcast
7:15 AM 17.6 °F 9.3 °F 12.2 °F 79% 29.89 in 5.0 mi SW 5.8 mph - N/A   Overcast
7:35 AM 19.4 °F 11.5 °F 14.0 °F 80% 29.89 in 7.0 mi WSW 5.8 mph - N/A   Overcast
7:55 AM 19.4 °F 11.5 °F 14.0 °F 80% 29.89 in 7.0 mi WSW 5.8 mph - N/A   Overcast
8:15 AM 19.4 °F 11.5 °F 14.0 °F 80% 29.90 in 7.0 mi WSW 5.8 mph - N/A   Overcast
8:35 AM 19.4 °F 10.4 °F 14.0 °F 80% 29.91 in 5.0 mi WSW 6.9 mph - N/A   Overcast
8:55 AM 21.2 °F 11.7 °F 14.0 °F 74% 29.91 in 6.0 mi West 8.1 mph - N/A   Overcast
9:15 AM 21.2 °F 11.7 °F 15.8 °F 80% 29.91 in 7.0 mi West 8.1 mph - N/A   Overcast
9:35 AM 23.0 °F 14.7 °F 15.8 °F 74% 29.90 in 8.0 mi WNW 6.9 mph - N/A   Overcast
9:55 AM 24.8 °F 16.9 °F 15.8 °F 69% 29.92 in 10.0 mi West 6.9 mph - N/A   Overcast
10:15 AM 24.8 °F 15.3 °F 15.8 °F 69% 29.93 in 10.0 mi West 9.2 mph - N/A   Overcast
10:35 AM 24.8 °F 11.9 °F 15.8 °F 69% 29.93 in 10.0 mi NW 16.1 mph 19.6 mph N/A   Overcast
10:55 AM 24.8 °F 12.4 °F 15.8 °F 69% 29.93 in 10.0 mi WNW 15.0 mph 20.7 mph N/A   Overcast
11:15 AM 24.8 °F 11.9 °F 12.2 °F 59% 29.95 in 10.0 mi NW 16.1 mph 21.9 mph N/A   Mostly Cloudy
11:35 AM 24.8 °F 12.4 °F 10.4 °F 54% 29.94 in 10.0 mi NW 15.0 mph 20.7 mph N/A   Partly Cloudy
11:55 AM 24.8 °F 12.4 °F 10.4 °F 54% 29.95 in 10.0 mi NW 15.0 mph 21.9 mph N/A   Mostly Cloudy
12:15 PM 23.0 °F 11.1 °F 10.4 °F 59% 29.95 in 10.0 mi NW 12.7 mph 21.9 mph N/A   Overcast
12:35 PM 21.2 °F 5.6 °F 6.8 °F 54% 29.94 in 10.0 mi WNW 20.7 mph 25.3 mph N/A   Overcast
12:55 PM 21.2 °F 6.4 °F 8.6 °F 58% 29.95 in 10.0 mi WNW 18.4 mph 25.3 mph N/A   Mostly Cloudy
1:15 PM 23.0 °F 11.1 °F 8.6 °F 54% 29.95 in 10.0 mi NW 12.7 mph 21.9 mph N/A   Mostly Cloudy
1:35 PM 21.2 °F 8.3 °F 6.8 °F 54% 29.95 in 10.0 mi WNW 13.8 mph 20.7 mph N/A   Mostly Cloudy
1:55 PM 21.2 °F 7.3 °F 8.6 °F 58% 29.95 in 10.0 mi WNW 16.1 mph 20.7 mph N/A   Overcast
2:15 PM 21.2 °F 8.9 °F 8.6 °F 58% 29.95 in 10.0 mi NW 12.7 mph 17.3 mph N/A   Overcast
2:35 PM 21.2 °F 7.3 °F 6.8 °F 54% 29.96 in 10.0 mi NNW 16.1 mph 19.6 mph N/A   Mostly Cloudy
2:55 PM 21.2 °F 9.5 °F 6.8 °F 54% 29.97 in 10.0 mi NW 11.5 mph 20.7 mph N/A   Partly Cloudy
3:15 PM 21.2 °F 9.5 °F 6.8 °F 54% 29.98 in 10.0 mi NNW 11.5 mph - N/A   Scattered Clouds
3:35 PM 21.2 °F 9.5 °F 5.0 °F 50% 29.98 in 10.0 mi NW 11.5 mph 23.0 mph N/A   Scattered Clouds
3:55 PM 21.2 °F 7.3 °F 3.2 °F 46% 29.99 in 10.0 mi WNW 16.1 mph 19.6 mph N/A   Partly Cloudy
4:15 PM 19.4 °F 6.0 °F 5.0 °F 54% 30.01 in 10.0 mi NW 13.8 mph 19.6 mph N/A   Partly Cloudy
4:35 PM 19.4 °F 7.9 °F 3.2 °F 49% 30.01 in 10.0 mi NW 10.4 mph 16.1 mph N/A   Clear
4:55 PM 17.6 °F 5.0 °F 3.2 °F 53% 30.03 in 10.0 mi NW 11.5 mph 18.4 mph N/A   Clear
5:35 PM 15.8 °F 2.7 °F 1.4 °F 53% 30.05 in 10.0 mi NNW 11.5 mph - N/A   Clear
5:55 PM 15.8 °F 3.4 °F 1.4 °F 53% 30.06 in 10.0 mi NNW 10.4 mph - N/A   Clear
6:15 PM 14.0 °F 1.2 °F 1.4 °F 57% 30.07 in 10.0 mi NNW 10.4 mph - N/A   Clear
6:35 PM 14.0 °F 2.9 °F 1.4 °F 57% 30.08 in 10.0 mi NW 8.1 mph - N/A   Clear
7:15 PM 12.2 °F 2.9 °F 1.4 °F 62% 30.08 in 10.0 mi NW 5.8 mph - N/A   Clear
7:35 PM 12.2 °F 6.1 °F -0.4 °F 57% 30.09 in 10.0 mi NW 3.5 mph - N/A   Clear
7:55 PM 10.4 °F 0.8 °F 1.4 °F 67% 30.09 in 10.0 mi NW 5.8 mph - N/A   Clear
8:15 PM 10.4 °F 2.2 °F 1.4 °F 67% 30.09 in 10.0 mi NW 4.6 mph - N/A   Clear
8:35 PM 10.4 °F 0.8 °F -0.4 °F 62% 30.10 in 10.0 mi WNW 5.8 mph - N/A   Clear
8:55 PM 8.6 °F -3.7 °F -0.4 °F 67% 30.10 in 10.0 mi West 8.1 mph - N/A   Clear
9:15 PM 8.6 °F -2.6 °F 1.4 °F 73% 30.10 in 10.0 mi West 6.9 mph - N/A   Clear
9:35 PM 8.6 °F -2.6 °F -0.4 °F 67% 30.10 in 10.0 mi West 6.9 mph - N/A   Clear
9:55 PM 8.6 °F -2.6 °F 1.4 °F 73% 30.09 in 10.0 mi West 6.9 mph - N/A   Scattered Clouds
10:15 PM 8.6 °F -3.7 °F 1.4 °F 73% 30.09 in 10.0 mi WNW 8.1 mph - N/A   Overcast
10:35 PM 8.6 °F -4.7 °F 1.4 °F 73% 30.10 in 10.0 mi WNW 9.2 mph - N/A   Overcast
10:55 PM 8.6 °F -4.7 °F -0.4 °F 67% 30.10 in 10.0 mi West 9.2 mph - N/A   Mostly Cloudy
11:15 PM 8.6 °F -4.7 °F 1.4 °F 73% 30.10 in 10.0 mi West 9.2 mph - N/A   Overcast
11:35 PM 8.6 °F -3.7 °F 1.4 °F 73% 30.10 in 10.0 mi West 8.1 mph - N/A   Overcast
11:55 PM 10.4 °F -2.4 °F 1.4 °F 67% 30.10 in 10.0 mi WNW 9.2 mph - N/A   Overcast